Hourly Weather Aalten

Today, 6 December, Sunday

Time Temperature Precipitation Wind Pressure Humidity
00:00 +2°C° 0 mm 2 mps 748 mmHg 90%
01:00 +1°C° 0 mm 2 mps 748 mmHg 91%
02:00 +1°C° 0 mm 2 mps 748 mmHg 91%
03:00 +1°C° 0 mm 2 mps 748 mmHg 91%
04:00 +1°C° 0 mm 2 mps 748 mmHg 91%
05:00 +1°C° 0 mm 2 mps 748 mmHg 90%
06:00 +1°C° 0 mm 2 mps 748 mmHg 90%
07:00 +2°C° 0 mm 2 mps 748 mmHg 90%
08:00 +2°C° 0 mm 2 mps 748 mmHg 89%
09:00 +3°C° 0 mm 2 mps 748 mmHg 89%
10:00 +3°C° 0 mm 2 mps 748 mmHg 87%
11:00 +4°C° 0 mm 2 mps 748 mmHg 85%
12:00 +5°C° 0 mm 2 mps 748 mmHg 83%
13:00 +5°C° 0 mm 2 mps 748 mmHg 85%
14:00 +4°C° 0 mm 2 mps 748 mmHg 87%
15:00 +4°C° 0 mm 2 mps 748 mmHg 89%
16:00 +4°C° 0 mm 2 mps 748 mmHg 89%
17:00 +3°C° 0 mm 3 mps 748 mmHg 88%
18:00 +3°C° 0 mm 3 mps 748 mmHg 88%
19:00 +3°C° 0.1 mm 3 mps 747 mmHg 88%
20:00 +3°C° 0.1 mm 3 mps 747 mmHg 89%
21:00 +3°C° 0.1 mm 3 mps 747 mmHg 89%
22:00 +3°C° 0.8 mm 4 mps 746 mmHg 91%
23:00 +4°C° 0.8 mm 4 mps 746 mmHg 93%

Tomorrow, 7 December, Monday

Time Temperature Precipitation Wind Pressure Humidity
00:00 +4°C° 0.8 mm 4 mps 745 mmHg 95%
01:00 +3°C° 0.9 mm 5 mps 744 mmHg 95%
02:00 +3°C° 0.9 mm 5 mps 743 mmHg 95%
03:00 +3°C° 0.9 mm 5 mps 742 mmHg 95%
04:00 +3°C° 1.6 mm 5 mps 742 mmHg 96%
05:00 +5°C° 1.6 mm 5 mps 742 mmHg 96%
06:00 +5°C° 1.6 mm 4 mps 741 mmHg 96%
07:00 +5°C° 1.2 mm 5 mps 741 mmHg 96%
08:00 +5°C° 1.2 mm 5 mps 741 mmHg 96%
09:00 +5°C° 1.2 mm 5 mps 741 mmHg 96%
10:00 +3°C° 1.2 mm 6 mps 742 mmHg 95%
11:00 +3°C° 1.2 mm 7 mps 742 mmHg 94%
12:00 +2°C° 1.2 mm 8 mps 742 mmHg 93%
13:00 +3°C° 1.3 mm 7 mps 743 mmHg 93%
14:00 +2°C° 1.3 mm 7 mps 744 mmHg 93%
15:00 +2°C° 1.3 mm 7 mps 745 mmHg 94%
16:00 +2°C° 0.2 mm 6 mps 745 mmHg 93%
17:00 +2°C° 0.2 mm 6 mps 746 mmHg 91%
18:00 +2°C° 0.2 mm 5 mps 747 mmHg 90%
19:00 +2°C° 0 mm 5 mps 748 mmHg 90%
20:00 +1°C° 0 mm 4 mps 748 mmHg 90%
21:00 +1°C° 0 mm 4 mps 749 mmHg 89%
22:00 +2°C° 0 mm 3 mps 749 mmHg 90%
23:00 +1°C° 0 mm 3 mps 750 mmHg 91%

Day after tomorrow, 8 December, Tuesday

Time Temperature Precipitation Wind Pressure Humidity
00:00 +2°C° 0 mm 2 mps 750 mmHg 91%
01:00 +2°C° 0 mm 2 mps 750 mmHg 91%
02:00 +1°C° 0 mm 2 mps 750 mmHg 92%
03:00 +1°C° 0 mm 2 mps 750 mmHg 92%
04:00 +1°C° 0 mm 2 mps 751 mmHg 92%
05:00 +1°C° 0 mm 2 mps 751 mmHg 92%
06:00 +1°C° 0 mm 2 mps 752 mmHg 92%
07:00 +1°C° 0 mm 2 mps 752 mmHg 91%
08:00 +2°C° 0 mm 2 mps 752 mmHg 90%
09:00 +2°C° 0 mm 2 mps 752 mmHg 89%
10:00 +3°C° 0 mm 2 mps 752 mmHg 86%
11:00 +3°C° 0 mm 2 mps 753 mmHg 83%
12:00 +4°C° 0 mm 2 mps 753 mmHg 81%
13:00 +4°C° 0 mm 1 mps 753 mmHg 83%
14:00 +4°C° 0 mm 1 mps 753 mmHg 85%
15:00 +3°C° 0 mm 1 mps 753 mmHg 87%
16:00 +3°C° 0 mm 1 mps 753 mmHg 88%
17:00 +3°C° 0 mm 1 mps 754 mmHg 88%
18:00 +2°C° 0 mm 1 mps 755 mmHg 89%
19:00 +2°C° 0 mm 1 mps 755 mmHg 89%
20:00 +2°C° 0 mm 1 mps 755 mmHg 89%
21:00 +2°C° 0 mm 1 mps 755 mmHg 89%
22:00 +2°C° 0 mm 1 mps 756 mmHg 90%
23:00 +2°C° 0 mm 1 mps 756 mmHg 90%

9 December, Wednesday

Time Temperature Precipitation Wind Pressure Humidity
00:00 +2°C° 0 mm 1 mps 756 mmHg 90%
01:00 +2°C° 0 mm 1 mps 756 mmHg 90%
02:00 +1°C° 0 mm 1 mps 756 mmHg 90%
03:00 +1°C° 0 mm 1 mps 757 mmHg 90%
04:00 0°C° 0 mm 0 mps 757 mmHg 90%
05:00 0°C° 0 mm 0 mps 757 mmHg 90%
06:00 0°C° 0 mm 0 mps 757 mmHg 90%
07:00 +1°C° 0 mm 0 mps 757 mmHg 89%
08:00 +1°C° 0 mm 0 mps 757 mmHg 87%
09:00 +2°C° 0 mm 0 mps 757 mmHg 86%
10:00 +2°C° 0 mm 0 mps 757 mmHg 82%
11:00 +3°C° 0 mm 0 mps 757 mmHg 79%
12:00 +5°C° 0 mm 1 mps 757 mmHg 76%
13:00 +3°C° 0 mm 0 mps 756 mmHg 80%
14:00 +2°C° 0 mm 0 mps 756 mmHg 83%
15:00 +2°C° 0 mm 0 mps 756 mmHg 87%
16:00 +1°C° 0 mm 0 mps 756 mmHg 88%
17:00 +1°C° 0 mm 0 mps 756 mmHg 88%
18:00 +1°C° 0 mm 0 mps 757 mmHg 89%
19:00 +1°C° 0 mm 0 mps 757 mmHg 89%
20:00 +2°C° 0 mm 1 mps 757 mmHg 90%
21:00 +2°C° 0 mm 1 mps 757 mmHg 90%
22:00 +1°C° 0 mm 1 mps 757 mmHg 90%
23:00 +1°C° 0 mm 1 mps 756 mmHg 90%

10 December, Thursday

Time Temperature Precipitation Wind Pressure Humidity
00:00 +1°C° 0 mm 1 mps 756 mmHg 91%
01:00 +1°C° 0 mm 1 mps 756 mmHg 91%
02:00 +1°C° 0 mm 1 mps 756 mmHg 91%
03:00 +1°C° 0 mm 1 mps 756 mmHg 91%
04:00 +1°C° 0 mm 1 mps 756 mmHg 91%
05:00 +1°C° 0 mm 1 mps 756 mmHg 91%
06:00 +1°C° 0 mm 1 mps 756 mmHg 91%
07:00 +1°C° 0 mm 1 mps 757 mmHg 89%
08:00 +2°C° 0 mm 1 mps 757 mmHg 87%
09:00 +2°C° 0 mm 1 mps 757 mmHg 86%
10:00 +3°C° 0 mm 1 mps 757 mmHg 82%
11:00 +4°C° 0 mm 1 mps 757 mmHg 78%
12:00 +4°C° 0 mm 1 mps 757 mmHg 75%
13:00 +4°C° 0 mm 1 mps 757 mmHg 78%
14:00 +2°C° 0 mm 2 mps 757 mmHg 81%
15:00 +2°C° 0 mm 2 mps 757 mmHg 85%
16:00 +1°C° 0 mm 2 mps 757 mmHg 86%
17:00 +1°C° 0 mm 2 mps 757 mmHg 87%
18:00 +1°C° 0 mm 2 mps 757 mmHg 89%
19:00 +1°C° 0 mm 2 mps 757 mmHg 89%
20:00 -1°C° 0 mm 2 mps 757 mmHg 88%
21:00 -1°C° 0 mm 2 mps 757 mmHg 88%
22:00 -1°C° 0 mm 3 mps 757 mmHg 88%
23:00 -1°C° 0 mm 3 mps 756 mmHg 89%

11 December, Friday

Time Temperature Precipitation Wind Pressure Humidity
00:00 -1°C° 0 mm 3 mps 756 mmHg 89%
01:00 -1°C° 0 mm 3 mps 756 mmHg 88%
02:00 -1°C° 0 mm 3 mps 755 mmHg 87%
03:00 -1°C° 0 mm 3 mps 755 mmHg 87%
04:00 -2°C° 0 mm 4 mps 755 mmHg 87%
05:00 -2°C° 0 mm 4 mps 754 mmHg 87%
06:00 -1°C° 0 mm 4 mps 754 mmHg 87%
07:00 -1°C° 0 mm 5 mps 753 mmHg 84%
08:00 -1°C° 0 mm 6 mps 753 mmHg 81%
09:00 -1°C° 0 mm 6 mps 752 mmHg 78%
10:00 0°C° 0 mm 7 mps 751 mmHg 74%
11:00 +2°C° 0 mm 7 mps 750 mmHg 70%
12:00 +2°C° 0 mm 7 mps 750 mmHg 66%
13:00 +2°C° 0.4 mm 7 mps 749 mmHg 70%
14:00 +2°C° 0.4 mm 7 mps 748 mmHg 73%
15:00 +2°C° 0.4 mm 7 mps 747 mmHg 77%
16:00 0°C° 1.6 mm 7 mps 747 mmHg 82%
17:00 0°C° 1.6 mm 7 mps 746 mmHg 88%
18:00 0°C° 1.6 mm 7 mps 746 mmHg 93%
19:00 +2°C° 0.2 mm 6 mps 746 mmHg 94%
20:00 +2°C° 0.2 mm 6 mps 746 mmHg 94%
21:00 +2°C° 0.2 mm 5 mps 747 mmHg 95%
22:00 +2°C° 0 mm 5 mps 747 mmHg 95%
23:00 +2°C° 0 mm 5 mps 747 mmHg 95%
Show more

We Need Your Consent

Meteoprog and our Service Providers may store and access personal data such as cookies, device identifiers or other similar technologies on your device and process such data to personalise content and ads, as well as provide social media features and to analyse the traffic.

  • Store and/or access information on your device

    Cookies, device identifiers or other information can be stored or accessed on your device for the purposes indicated above.

  • Personalised ads and content, ad and content measurement, audience insights, and products development

    Ads and content can be personalised based on a profile. More data can be added to better personalise ads and content. Ad and content performance can be measured. Insights about the audience who saw the ads and content can be derived. Such data can be used to develop or improve user’s experience, systems and software.

By clicking ‘I Agree’ you will allow the use of indicated cookies, device identifiers, web beacons or other similar technologies. Your settings can be changed in the browser on your device.

For certain purposes, legitimate interests may be relied on, rather than consent. You can read more about this in our Privacy and Cookie Policy.